Location: Ermatingen
(47.6706°N, 9.0857°E)
Time: 01:41:47
(UTC+00:00)

Cosmos 1428 Rocket - Pass Details

Date: 03 December 2021
Orbit: 949 x 987 km, 82.9° (Epoch: 17 January)

Event Time Altitude Azimuth Distance (km) Brightness Sun altitude
Rises 05:37:48 0° 172° (S) 3,633 7.9 -12.3°
Reaches altitude 10° 05:40:20 10° 168° (SSE) 2,686 7.3 -11.9°
Maximum altitude 05:46:18 56° 92° (E) 1,129 5.3 -10.9°
Drops below altitude 10° 05:52:16 10° 16° (NNE) 2,686 6.8 -10.0°
Sets 05:54:48 0° 13° (NNE) 3,634 7.4 -9.6°
